FW1460 Weather Reports


Display with metric or nautical units.
time (UTC)temp
F
wind
direction
speed
MPH
gust
MPH
rain 1hr
in
rain 24hr
in
rain mn
in
humidity
%
barometer
mb
20260505041518 50 138 2.0 6.0 0.00 0.00 0.00 83 1011.4
20260505040016 50 188 1.0 5.0 0.00 0.00 0.00 83 1011.4
20260505034514 50 160 3.0 7.0 0.00 0.00 0.00 82 1011.3
20260505033017 50 186 1.0 6.0 0.00 0.00 0.00 82 1011.2
20260505031514 51 172 1.0 5.0 0.00 0.00 0.00 82 1011.3
20260505030013 51 223 3.0 8.0 0.00 0.00 0.00 81 1011.4
20260505024513 51 183 2.0 9.0 0.00 0.00 0.00 81 1011.4
20260505023012 51 193 1.0 8.0 0.00 0.00 0.00 81 1011.4
20260505021513 51 205 3.0 8.0 0.00 0.00 0.00 81 1011.6
20260505020016 51 223 3.0 9.0 0.00 0.00 0.00 81 1011.5
20260505014513 51 208 3.0 10.0 0.00 0.00 0.00 80 1011.5
20260505013009 51 216 2.0 10.0 0.00 0.00 0.00 79 1011.4
20260505011509 51 204 3.0 9.0 0.00 0.00 0.00 78 1011.2
20260505010009 52 215 4.0 10.0 0.00 0.00 0.00 78 1010.9
20260505004513 52 195 3.0 11.0 0.00 0.00 0.00 77 1010.7
20260505003006 52 180 4.0 11.0 0.00 0.00 0.00 76 1010.4
20260505001506 53 192 3.0 12.0 0.00 0.00 0.00 76 1010.1
20260505000008 53 149 3.0 12.0 0.00 0.00 0.00 75 1009.9
20260504234503 54 193 3.0 10.0 0.00 0.00 0.00 73 1009.6
20260504233003 54 213 3.0 12.0 0.00 0.00 0.00 72 1009.6
20260504231502 55 209 3.0 9.0 0.00 0.00 0.00 71 1009.4
20260504230003 55 213 4.0 14.0 0.00 0.00 0.00 69 1009.2
20260504224501 56 213 5.0 17.0 0.00 0.00 0.00 66 1009.0
20260504223000 57 205 4.0 11.0 0.00 0.00 0.00 63 1008.8
20260504221603 58 200 7.0 13.0 0.00 0.00 0.00 60 1008.8
20260504220106 59 215 3.0 12.0 0.00 0.00 0.00 59 1008.9
20260504214606 60 194 5.0 16.0 0.00 0.00 0.00 56 1008.7
20260504213059 61 170 4.0 16.0 0.00 0.00 0.00 57 1008.8
20260504211557 61 201 5.0 17.0 0.00 0.00 0.00 58 1008.7
20260504210105 62 115 4.0 12.0 0.00 0.00 0.00 57 1008.6
20260504204615 62 159 4.0 15.0 0.00 0.00 0.00 56 1008.5
20260504203129 63 133 6.0 14.0 0.00 0.00 0.00 55 1008.5
20260504201555 63 170 6.0 16.0 0.00 0.00 0.00 53 1008.4
20260504200054 64 202 7.0 16.0 0.00 0.00 0.00 50 1008.5
20260504194553 64 134 8.0 20.0 0.00 0.00 0.00 48 1008.5
20260504193053 65 229 6.0 11.0 0.00 0.00 0.00 49 1008.5
20260504191554 65 190 6.0 13.0 0.00 0.00 0.00 47 1008.6
20260504190053 66 201 8.0 15.0 0.00 0.00 0.00 44 1008.7
20260504184549 65 202 8.0 17.0 0.00 0.00 0.00 46 1008.6
20260504183047 66 130 5.0 13.0 0.00 0.00 0.00 48 1008.8
20260504181546 66 198 5.0 17.0 0.00 0.00 0.00 49 1009.0
20260504180045 65 194 5.0 19.0 0.00 0.00 0.00 49 1008.8
20260504174546 65 161 7.0 19.0 0.00 0.00 0.00 46 1008.9
20260504173057 66 192 7.0 17.0 0.00 0.00 0.00 43 1008.8
20260504171543 68 147 3.0 13.0 0.00 0.00 0.00 40 1008.9
20260504081530 46 202 0.0 3.0 0.00 0.00 0.00 70 1011.0
20260504050007 44 211 0.0 2.0 0.00 0.00 0.00 64 1010.6
20260504044507 43 217 0.0 1.0 0.00 0.00 0.00 65 1010.7
20260504043004 43 217 0.0 0.0 0.00 0.00 0.00 65 1010.7